| time (UTC) | temp F | wind direction | speed knots | gust knots | rain 1hr in | rain 24hr in | rain mn in | humidity % | barometer mb |
| 20260504050346 | 42 | 327 | 0.0 | 0.0 | 0.00 | 0.00 | 0.00 | 76 | 1012.8 |
| 20260504045844 | 43 | 339 | 0.0 | 0.0 | 0.00 | 0.00 | 0.00 | 75 | 1012.9 |
| 20260504045343 | 43 | 338 | 0.0 | 0.0 | 0.00 | 0.00 | 0.00 | 76 | 1013.2 |
| 20260504044841 | 43 | 336 | 0.0 | 0.0 | 0.00 | 0.00 | 0.00 | 76 | 1013.3 |
| 20260504044338 | 43 | 337 | 0.0 | 0.0 | 0.00 | 0.00 | 0.00 | 75 | 1013.1 |
| 20260504043836 | 43 | 333 | 0.0 | 0.0 | 0.00 | 0.00 | 0.00 | 75 | 1013.1 |
| 20260504043332 | 43 | 336 | 0.0 | 0.0 | 0.00 | 0.00 | 0.00 | 76 | 1012.9 |
| 20260504042829 | 44 | 336 | 0.0 | 0.0 | 0.00 | 0.00 | 0.00 | 76 | 1013.1 |
| 20260504042326 | 44 | 337 | 0.0 | 0.0 | 0.00 | 0.00 | 0.00 | 75 | 1012.9 |
| 20260504041822 | 44 | 334 | 0.0 | 0.0 | 0.00 | 0.00 | 0.00 | 74 | 1012.9 |
| 20260504041318 | 44 | 334 | 0.0 | 0.0 | 0.00 | 0.00 | 0.00 | 74 | 1013.0 |
| 20260504040815 | 44 | 323 | 0.0 | 0.0 | 0.00 | 0.00 | 0.00 | 74 | 1012.9 |
| 20260504040312 | 44 | 335 | 0.0 | 0.0 | 0.00 | 0.00 | 0.00 | 72 | 1012.9 |
| 20260504035808 | 45 | 334 | 0.0 | 0.0 | 0.00 | 0.00 | 0.00 | 72 | 1012.8 |
| 20260504035305 | 45 | 328 | 0.0 | 0.0 | 0.00 | 0.00 | 0.00 | 72 | 1012.8 |
| 20260504034802 | 46 | 333 | 0.0 | 0.0 | 0.00 | 0.00 | 0.00 | 71 | 1012.8 |
| 20260504034300 | 46 | 332 | 0.0 | 0.0 | 0.00 | 0.00 | 0.00 | 69 | 1012.8 |
| 20260504033757 | 47 | 330 | 0.0 | 0.0 | 0.00 | 0.00 | 0.00 | 68 | 1012.6 |
| 20260504033255 | 47 | 326 | 0.0 | 1.7 | 0.00 | 0.00 | 0.00 | 67 | 1012.7 |
| 20260504032751 | 47 | 314 | 1.7 | 1.7 | 0.00 | 0.00 | 0.00 | 66 | 1012.5 |
| 20260504032248 | 47 | 325 | 0.0 | 0.0 | 0.00 | 0.00 | 0.00 | 65 | 1012.8 |
| 20260504031745 | 47 | 327 | 0.0 | 0.0 | 0.00 | 0.00 | 0.00 | 65 | 1012.6 |
| 20260504031243 | 48 | 325 | 0.0 | 0.0 | 0.00 | 0.00 | 0.00 | 63 | 1012.6 |
| 20260504030738 | 48 | 317 | 0.0 | 0.0 | 0.00 | 0.00 | 0.00 | 62 | 1012.7 |
| 20260504030236 | 49 | 325 | 0.0 | 0.0 | 0.00 | 0.00 | 0.00 | 60 | 1012.6 |
| 20260504025732 | 49 | 326 | 0.0 | 0.0 | 0.00 | 0.00 | 0.00 | 60 | 1012.6 |
| 20260504025229 | 49 | 315 | 0.0 | 0.0 | 0.00 | 0.00 | 0.00 | 60 | 1012.7 |
| 20260504024726 | 49 | 318 | 0.0 | 1.7 | 0.00 | 0.00 | 0.00 | 61 | 1012.5 |
| 20260504024222 | 49 | 325 | 0.0 | 1.7 | 0.00 | 0.00 | 0.00 | 60 | 1012.7 |
| 20260504023719 | 49 | 321 | 0.0 | 0.0 | 0.00 | 0.00 | 0.00 | 61 | 1012.5 |
| 20260504023215 | 50 | 322 | 0.0 | 1.7 | 0.00 | 0.00 | 0.00 | 60 | 1012.6 |
| 20260504022712 | 50 | 314 | 0.0 | 0.0 | 0.00 | 0.00 | 0.00 | 59 | 1012.5 |
| 20260504022208 | 51 | 327 | 0.0 | 0.0 | 0.00 | 0.00 | 0.00 | 58 | 1012.6 |
| 20260504021706 | 51 | 321 | 0.0 | 0.0 | 0.00 | 0.00 | 0.00 | 57 | 1012.4 |
| 20260504021202 | 51 | 323 | 0.9 | 1.7 | 0.00 | 0.00 | 0.00 | 56 | 1012.4 |
| 20260504020659 | 51 | 326 | 0.0 | 1.7 | 0.00 | 0.00 | 0.00 | 54 | 1012.5 |
| 20260504020155 | 52 | 325 | 0.0 | 1.7 | 0.00 | 0.00 | 0.00 | 53 | 1012.4 |
| 20260504015652 | 52 | 291 | 1.7 | 4.3 | 0.00 | 0.00 | 0.00 | 52 | 1012.4 |
| 20260504015148 | 53 | 317 | 0.0 | 0.0 | 0.00 | 0.00 | 0.00 | 52 | 1012.3 |
| 20260504014644 | 53 | 309 | 1.7 | 1.7 | 0.00 | 0.00 | 0.00 | 50 | 1012.3 |
| 20260504014142 | 54 | 326 | 1.7 | 1.7 | 0.00 | 0.00 | 0.00 | 49 | 1012.3 |
| 20260504013639 | 54 | 314 | 0.0 | 1.7 | 0.00 | 0.00 | 0.00 | 48 | 1012.1 |
| 20260504013136 | 54 | 312 | 0.0 | 1.7 | 0.00 | 0.00 | 0.00 | 48 | 1012.1 |
| 20260504012633 | 54 | 312 | 0.9 | 4.3 | 0.00 | 0.00 | 0.00 | 48 | 1012.1 |
| 20260504012131 | 54 | 289 | 2.6 | 4.3 | 0.00 | 0.00 | 0.00 | 49 | 1012.3 |
| 20260504011627 | 54 | 295 | 3.5 | 4.3 | 0.00 | 0.00 | 0.00 | 49 | 1012.2 |
| 20260504011124 | 54 | 249 | 2.6 | 4.3 | 0.00 | 0.00 | 0.00 | 48 | 1012.2 |
| 20260504010620 | 55 | 324 | 2.6 | 6.1 | 0.00 | 0.00 | 0.00 | 48 | 1011.9 |
| 20260504010116 | 55 | 292 | 3.5 | 6.1 | 0.00 | 0.00 | 0.00 | 48 | 1011.9 |
| 20260504005613 | 55 | 284 | 2.6 | 6.1 | 0.00 | 0.00 | 0.00 | 48 | 1011.9 |
| 20260504005110 | 55 | 289 | 3.5 | 4.3 | 0.00 | 0.00 | 0.00 | 48 | 1012.0 |
| 20260504004608 | 55 | 289 | 1.7 | 4.3 | 0.00 | 0.00 | 0.00 | 47 | 1012.0 |
| 20260504004105 | 56 | 301 | 1.7 | 6.1 | 0.00 | 0.00 | 0.00 | 47 | 1011.9 |
| 20260504003555 | 56 | 266 | 5.2 | 6.1 | 0.00 | 0.00 | 0.00 | 45 | 1011.8 |
| 20260504003053 | 57 | 288 | 2.6 | 6.1 | 0.00 | 0.00 | 0.00 | 44 | 1011.7 |
| 20260504002549 | 57 | 306 | 2.6 | 6.1 | 0.00 | 0.00 | 0.00 | 45 | 1011.7 |
| 20260504002047 | 57 | 259 | 6.1 | 8.7 | 0.00 | 0.00 | 0.00 | 44 | 1011.6 |
| 20260504001545 | 57 | 324 | 3.5 | 6.1 | 0.00 | 0.00 | 0.00 | 44 | 1011.5 |
| 20260504001040 | 57 | 286 | 3.5 | 13.0 | 0.00 | 0.00 | 0.00 | 44 | 1011.7 |
| 20260504000538 | 58 | 300 | 6.1 | 8.7 | 0.00 | 0.00 | 0.00 | 43 | 1011.5 |
| 20260504000035 | 58 | 301 | 6.1 | 8.7 | 0.00 | 0.00 | 0.00 | 43 | 1011.3 |
| 20260503235533 | 58 | 298 | 3.5 | 10.4 | 0.00 | 0.00 | 0.00 | 43 | 1011.4 |
| 20260503235030 | 58 | 317 | 4.3 | 8.7 | 0.00 | 0.00 | 0.00 | 42 | 1011.5 |
| 20260503234527 | 59 | 276 | 5.2 | 8.7 | 0.00 | 0.00 | 0.00 | 42 | 1011.5 |
| 20260503234026 | 59 | 250 | 1.7 | 10.4 | 0.00 | 0.00 | 0.00 | 42 | 1011.3 |
| 20260503233521 | 59 | 290 | 4.3 | 8.7 | 0.00 | 0.00 | 0.00 | 41 | 1011.4 |
| 20260503233018 | 59 | 272 | 3.5 | 8.7 | 0.00 | 0.00 | 0.00 | 42 | 1011.4 |
| 20260503232515 | 60 | 230 | 5.2 | 8.7 | 0.00 | 0.00 | 0.00 | 40 | 1011.5 |
| 20260503232012 | 60 | 329 | 5.2 | 8.7 | 0.00 | 0.00 | 0.00 | 40 | 1011.4 |
| 20260503231510 | 60 | 261 | 7.0 | 10.4 | 0.00 | 0.00 | 0.00 | 40 | 1011.3 |
| 20260503231006 | 60 | 262 | 5.2 | 8.7 | 0.00 | 0.00 | 0.00 | 40 | 1011.2 |
| 20260503230503 | 60 | 307 | 4.3 | 8.7 | 0.00 | 0.00 | 0.00 | 40 | 1011.4 |
| 20260503230000 | 60 | 287 | 9.6 | 14.8 | 0.00 | 0.00 | 0.00 | 39 | 1011.5 |
| 20260503225457 | 61 | 298 | 7.0 | 10.4 | 0.00 | 0.00 | 0.00 | 38 | 1011.3 |
| 20260503224952 | 61 | 288 | 8.7 | 13.0 | 0.00 | 0.00 | 0.00 | 38 | 1011.2 |
| 20260503224450 | 62 | 282 | 6.1 | 10.4 | 0.00 | 0.00 | 0.00 | 38 | 1011.4 |
| 20260503223947 | 62 | 274 | 7.8 | 10.4 | 0.00 | 0.00 | 0.00 | 37 | 1011.4 |
| 20260503223445 | 62 | 325 | 7.8 | 13.0 | 0.00 | 0.00 | 0.00 | 36 | 1011.3 |
| 20260503222941 | 62 | 262 | 7.0 | 8.7 | 0.00 | 0.00 | 0.00 | 37 | 1011.2 |
| 20260503222439 | 61 | 288 | 7.8 | 10.4 | 0.00 | 0.00 | 0.00 | 38 | 1011.4 |
| 20260503221937 | 61 | 272 | 12.2 | 16.5 | 0.00 | 0.00 | 0.00 | 38 | 1011.3 |
| 20260503221435 | 62 | 284 | 7.0 | 8.7 | 0.00 | 0.00 | 0.00 | 37 | 1011.3 |
| 20260503220932 | 61 | 294 | 4.3 | 10.4 | 0.00 | 0.00 | 0.00 | 37 | 1011.2 |
| 20260503220428 | 63 | 300 | 7.8 | 16.5 | 0.00 | 0.00 | 0.00 | 36 | 1011.2 |
| 20260503215925 | 63 | 279 | 7.0 | 14.8 | 0.00 | 0.00 | 0.00 | 36 | 1011.5 |
| 20260503215422 | 62 | 297 | 11.3 | 16.5 | 0.00 | 0.00 | 0.00 | 36 | 1011.5 |
| 20260503214920 | 61 | 296 | 11.3 | 20.9 | 0.00 | 0.00 | 0.00 | 37 | 1011.4 |
| 20260503214417 | 62 | 252 | 11.3 | 23.5 | 0.00 | 0.00 | 0.00 | 35 | 1011.3 |
| 20260503213914 | 62 | 276 | 9.6 | 20.9 | 0.00 | 0.00 | 0.00 | 36 | 1011.2 |
| 20260503213412 | 62 | 294 | 7.0 | 13.0 | 0.00 | 0.00 | 0.00 | 36 | 1011.2 |
| 20260503212908 | 62 | 257 | 5.2 | 10.4 | 0.00 | 0.00 | 0.00 | 37 | 1011.4 |
| 20260503212406 | 63 | 258 | 3.5 | 19.1 | 0.00 | 0.00 | 0.00 | 36 | 1011.3 |
| 20260503211903 | 63 | 289 | 8.7 | 14.8 | 0.00 | 0.00 | 0.00 | 35 | 1011.2 |
| 20260503211400 | 63 | 305 | 11.3 | 19.1 | 0.00 | 0.00 | 0.00 | 35 | 1011.1 |
| 20260503210855 | 62 | 246 | 10.4 | 16.5 | 0.00 | 0.00 | 0.00 | 36 | 1011.0 |
| 20260503210352 | 61 | 265 | 5.2 | 14.8 | 0.00 | 0.00 | 0.00 | 36 | 1011.2 |
| 20260503205847 | 62 | 336 | 7.8 | 19.1 | 0.00 | 0.00 | 0.00 | 36 | 1011.2 |
| 20260503205344 | 63 | 293 | 6.1 | 16.5 | 0.00 | 0.00 | 0.00 | 36 | 1011.3 |
| 20260503204841 | 62 | 327 | 7.8 | 16.5 | 0.00 | 0.00 | 0.00 | 37 | 1011.3 |
| 20260503204338 | 63 | 294 | 12.2 | 25.2 | 0.00 | 0.00 | 0.00 | 35 | 1011.3 |
| 20260503203835 | 64 | 266 | 8.7 | 13.0 | 0.00 | 0.00 | 0.00 | 36 | 1011.4 |
| 20260503203333 | 61 | 268 | 9.6 | 14.8 | 0.00 | 0.00 | 0.00 | 37 | 1011.3 |
| 20260503202829 | 62 | 320 | 8.7 | 19.1 | 0.00 | 0.00 | 0.00 | 36 | 1011.4 |
| 20260503202328 | 62 | 294 | 5.2 | 14.8 | 0.00 | 0.00 | 0.00 | 36 | 1011.3 |
| 20260503201826 | 62 | 312 | 19.1 | 25.2 | 0.00 | 0.00 | 0.00 | 34 | 1011.3 |
| 20260503201322 | 64 | 321 | 8.7 | 16.5 | 0.00 | 0.00 | 0.00 | 35 | 1011.3 |
| 20260503200820 | 63 | 257 | 7.8 | 20.9 | 0.00 | 0.00 | 0.00 | 36 | 1011.2 |
| 20260503200315 | 63 | 286 | 2.6 | 13.0 | 0.00 | 0.00 | 0.00 | 36 | 1011.3 |
| 20260503195813 | 62 | 316 | 9.6 | 14.8 | 0.00 | 0.00 | 0.00 | 36 | 1011.5 |
| 20260503195309 | 63 | 340 | 3.5 | 13.0 | 0.00 | 0.00 | 0.00 | 35 | 1011.5 |
| 20260503194807 | 64 | 305 | 7.8 | 10.4 | 0.00 | 0.00 | 0.00 | 37 | 1011.5 |
| 20260503194303 | 62 | 324 | 3.5 | 8.7 | 0.00 | 0.00 | 0.00 | 35 | 1011.7 |
| 20260503193759 | 62 | 299 | 7.8 | 14.8 | 0.00 | 0.00 | 0.00 | 36 | 1011.8 |
| 20260503193255 | 62 | 334 | 7.8 | 19.1 | 0.00 | 0.00 | 0.00 | 36 | 1011.8 |
| 20260503192751 | 63 | 226 | 9.6 | 14.8 | 0.00 | 0.00 | 0.00 | 35 | 1011.9 |
| 20260503192246 | 62 | 261 | 7.8 | 13.0 | 0.00 | 0.00 | 0.00 | 36 | 1012.2 |
| 20260503191743 | 63 | 279 | 6.1 | 20.9 | 0.00 | 0.00 | 0.00 | 36 | 1011.9 |
| 20260503191240 | 62 | 308 | 7.0 | 13.0 | 0.00 | 0.00 | 0.00 | 35 | 1012.0 |
| 20260503190731 | 62 | 297 | 11.3 | 20.9 | 0.00 | 0.00 | 0.00 | 36 | 1012.1 |
| 20260503190228 | 62 | 256 | 11.3 | 16.5 | 0.00 | 0.00 | 0.00 | 36 | 1012.3 |
| 20260503185725 | 61 | 293 | 11.3 | 19.1 | 0.00 | 0.00 | 0.00 | 37 | 1012.1 |
| 20260503185221 | 63 | 268 | 2.6 | 8.7 | 0.00 | 0.00 | 0.00 | 37 | 1012.2 |
| 20260503184716 | 62 | 303 | 2.6 | 10.4 | 0.00 | 0.00 | 0.00 | 36 | 1012.3 |
| 20260503184212 | 61 | 299 | 7.0 | 10.4 | 0.00 | 0.00 | 0.00 | 35 | 1012.3 |
| 20260503183709 | 62 | 264 | 5.2 | 10.4 | 0.00 | 0.00 | 0.00 | 36 | 1012.2 |
| 20260503183206 | 61 | 236 | 7.0 | 10.4 | 0.00 | 0.00 | 0.00 | 37 | 1012.4 |
| 20260503182704 | 60 | 224 | 9.6 | 14.8 | 0.00 | 0.00 | 0.00 | 37 | 1012.4 |
| 20260503182203 | 60 | 292 | 12.2 | 14.8 | 0.00 | 0.00 | 0.00 | 36 | 1012.5 |
| 20260503181658 | 59 | 299 | 10.4 | 16.5 | 0.00 | 0.00 | 0.00 | 37 | 1012.5 |
| 20260503181155 | 59 | 281 | 4.3 | 14.8 | 0.00 | 0.00 | 0.00 | 37 | 1012.6 |
| 20260503180652 | 59 | 335 | 7.0 | 8.7 | 0.00 | 0.00 | 0.00 | 37 | 1012.5 |
| 20260503180151 | 60 | 329 | 9.6 | 13.0 | 0.00 | 0.00 | 0.00 | 37 | 1012.7 |
| 20260503175647 | 60 | 249 | 6.1 | 6.1 | 0.00 | 0.00 | 0.00 | 37 | 1012.7 |
| 20260503175144 | 59 | 274 | 13.9 | 19.1 | 0.00 | 0.00 | 0.00 | 35 | 1012.8 |
| 20260503174640 | 59 | 318 | 3.5 | 6.1 | 0.00 | 0.00 | 0.00 | 38 | 1012.9 |
| 20260503174138 | 58 | 338 | 7.0 | 13.0 | 0.00 | 0.00 | 0.00 | 38 | 1012.9 |
| 20260503173633 | 58 | 263 | 5.2 | 13.0 | 0.00 | 0.00 | 0.00 | 36 | 1013.1 |
| 20260503173129 | 58 | 302 | 8.7 | 16.5 | 0.00 | 0.00 | 0.00 | 38 | 1013.1 |
| 20260503172620 | 58 | 340 | 2.6 | 10.4 | 0.00 | 0.00 | 0.00 | 38 | 1013.2 |
| 20260503172118 | 58 | 324 | 1.7 | 6.1 | 0.00 | 0.00 | 0.00 | 40 | 1013.4 |
| 20260503171614 | 59 | 296 | 3.5 | 6.1 | 0.00 | 0.00 | 0.00 | 39 | 1013.3 |
| 20260503171112 | 59 | 356 | 3.5 | 4.3 | 0.00 | 0.00 | 0.00 | 38 | 1013.3 |
| 20260503170609 | 59 | 0 | 5.2 | 6.1 | 0.00 | 0.00 | 0.00 | 38 | 1013.5 |
| 20260503170105 | 57 | 334 | 7.8 | 16.5 | 0.00 | 0.00 | 0.00 | 40 | 1013.5 |
| 20260503151000 | 53 | 323 | 4.3 | 10.4 | 0.00 | 0.00 | 0.00 | 45 | 1014.7 |
| 20260503150457 | 52 | 307 | 3.5 | 13.0 | 0.00 | 0.00 | 0.00 | 45 | 1014.8 |
| 20260503131344 | 48 | 343 | 3.5 | 8.7 | 0.00 | 0.00 | 0.00 | 47 | 1015.1 |
| 20260503130841 | 48 | 302 | 1.7 | 1.7 | 0.00 | 0.00 | 0.00 | 51 | 1015.2 |
| 20260503130339 | 47 | 6 | 0.9 | 4.3 | 0.00 | 0.00 | 0.00 | 52 | 1015.1 |
| 20260503110738 | 40 | 303 | 1.7 | 4.3 | 0.00 | 0.00 | 0.00 | 71 | 1014.9 |
| 20260503110235 | 40 | 297 | 1.7 | 1.7 | 0.00 | 0.00 | 0.00 | 71 | 1014.7 |
| 20260503100201 | 39 | 334 | 0.0 | 1.7 | 0.00 | 0.00 | 0.00 | 72 | 1013.9 |
| 20260503090120 | 39 | 326 | 0.0 | 0.0 | 0.00 | 0.00 | 0.00 | 71 | 1013.8 |
| 20260503081551 | 41 | 331 | 0.0 | 1.7 | 0.00 | 0.00 | 0.00 | 72 | 1013.7 |
| 20260503081048 | 41 | 328 | 0.0 | 1.7 | 0.00 | 0.00 | 0.00 | 72 | 1013.6 |
| 20260503080544 | 41 | 331 | 0.0 | 1.7 | 0.00 | 0.00 | 0.00 | 72 | 1013.5 |
| 20260503072517 | 42 | 341 | 0.0 | 0.0 | 0.00 | 0.00 | 0.00 | 69 | 1013.2 |
| 20260503072014 | 42 | 336 | 0.0 | 1.7 | 0.00 | 0.00 | 0.00 | 68 | 1013.1 |
| 20260503071511 | 42 | 330 | 0.0 | 1.7 | 0.00 | 0.00 | 0.00 | 69 | 1013.1 |
| 20260503071008 | 42 | 333 | 0.0 | 0.0 | 0.00 | 0.00 | 0.00 | 69 | 1013.1 |
| 20260503070504 | 43 | 333 | 0.0 | 0.0 | 0.00 | 0.00 | 0.00 | 69 | 1013.0 |
| 20260503054922 | 45 | 351 | 3.5 | 6.1 | 0.00 | 0.00 | 0.00 | 64 | 1013.1 |
| 20260503054419 | 45 | 0 | 0.0 | 6.1 | 0.00 | 0.00 | 0.00 | 63 | 1013.2 |
| 20260503053917 | 45 | 3 | 2.6 | 4.3 | 0.00 | 0.00 | 0.00 | 62 | 1013.2 |